This demonstration page uses our WeatherBlox Daily Observations layout. Learn more.

Left ArrowRight Arrow

34.74481, -87.66753

Hourly Observations for June 2, 2019

Temp ( °F °C ) Dew Point ( °F °C ) Humidity (%) Winds ( mph kmh ) Pressure ( in mb ) Visibility ( mi km ) Precip ( " mm )
12:53 am 00:53 Clear 68 20 63 17.2 84 84 Calm 29.86 1011 10 16 0.00 0.00
1:53 am 01:53 Clear 68 20 64 17.8 87 87 Calm 29.88 1012 10 16 0.00 0.00
2:53 am 02:53 Clear 67 19.4 63 17.2 87 87 Calm 29.87 1011 10 16 0.00 0.00
3:53 am 03:53 Clear 66 18.9 62 16.7 87 87 Calm 29.87 1011 10 16 0.00 0.00
4:53 am 04:53 Clear 67 19.4 63 17.2 87 87 Calm 29.88 1012 10 16 0.00 0.00
5:53 am 05:53 Sunny 66 18.9 62 16.7 87 87 Calm 29.88 1012 10 16 0.00 0.00
6:53 am 06:53 Partly Cloudy 69 20.6 64 17.8 84 84 Calm 29.90 1013 10 16 0.00 0.00
7:53 am 07:53 Sunny 75 23.9 63 17.2 66 66 W 6 9 29.91 1013 10 16 0.00 0.00
8:53 am 08:53 Sunny 80 26.7 63 17.2 56 56 W 7 11 29.92 1013 10 16 0.00 0.00
9:53 am 09:53 Sunny 86 30 61 16.1 43 43 W 7 11 29.91 1013 10 16 0.00 0.00
10:53 am 10:53 Sunny 89 31.7 61 16.1 39 39 W 12 19 29.90 1013 10 16 0.00 0.00
11:53 am 11:53 Sunny 93 33.9 62 16.7 36 36 W 13 20 29.90 1012 10 16 0.00 0.00
12:53 pm 12:53 Mostly Sunny 92 33.3 61 16.1 36 36 W 14 22 29.89 1012 10 16 0.00 0.00
1:53 pm 13:53 Mostly Sunny 94 34.4 60 15.6 32 32 WNW 16 26 29.88 1012 10 16 0.00 0.00
2:53 pm 14:53 Mostly Sunny 93 33.9 63 17.2 37 37 NNW 9 15 29.87 1012 10 16 0.00 0.00
3:53 pm 15:53 Mostly Sunny 92 33.3 63 17.2 38 38 NNW 10 17 29.87 1012 10 16 0.00 0.00
4:53 pm 16:53 Sunny 91 32.8 61 16.1 37 37 NW 8 13 29.88 1012 10 16 0.00 0.00
5:53 pm 17:53 Sunny 90 32.2 63 17.2 41 41 WNW 9 15 29.87 1012 10 16 0.00 0.00
6:53 pm 18:53 Sunny 88 31.1 64 17.8 45 45 NW 6 9 29.87 1012 10 16 0.00 0.00
7:53 pm 19:53 Sunny 83 28.3 64 17.8 53 53 NW 5 7 29.88 1012 10 16 0.00 0.00
8:53 pm 20:53 Clear 80 26.7 65 18.3 60 60 Calm 29.88 1012 10 16 0.00 0.00
9:53 pm 21:53 Clear 77 25 67 19.4 71 71 NNW 5 7 29.91 1013 10 16 0.00 0.00
10:53 pm 22:53 Clear 78 25.6 66 18.9 67 67 Calm 29.92 1013 10 16 0.00 0.00
11:53 pm 23:53 Clear 77 25 66 18.9 69 69 NNE 5 7 29.92 1013 10 16 0.00 0.00

Powered by AerisWeather